Location: Unspecified
(35.6961°N, 0.0000°E)
Time: 00:56:46
(UTC+00:00)

S-56A Canister/Altair - Pass Details

Date: 27 May 2019
Orbit: 633 x 2499 km, 38.9° (Epoch: 16 June)

Event Time Altitude Azimuth Distance (km) Brightness Sun altitude
Rises 06:16:38 0° 288° (WNW) 4,425 10.9 16.0°
Reaches altitude 10° 06:19:21 10° 282° (WNW) 3,676 10.5 16.5°
Maximum altitude 06:28:44 48° 212° (SSW) 2,429 10.0 18.4°
Drops below altitude 10° 06:41:43 10° 144° (SE) 4,999 12.1 21.0°
Sets 06:46:07 0° 140° (SE) 6,116 12.5 21.8°
